Regional Weather Roundup
Issued by NWS Newport/Morehead, NC

Home | Current Version | Previous Version | Text Only | Print | Product List | Glossary On
Versions: 1 2 3 4 5 6 7 8 9 10 11 12 13 14 15 16 17 18 19 20 21 22 23 24 25 26 27 28 29 30 31 32 33 34 35 36 37 38 39 40 41 42 43 44 45 46 47 48 49 50
911
ASUS42 KMHX 090625
RWRMHX
WEATHER ROUNDUP FOR EASTERN NORTH CAROLINA
NATIONAL WEATHER SERVICE NEWPORT/MOREHEAD CITY NC
100 AM EST TUE FEB 09 2016

NOTE: "FAIR" INDICATES FEW OR NO CLOUDS BELOW 12,000 FEET
WITH NO SIGNIFICANT WEATHER AND/OR OBSTRUCTIONS TO VISIBILITY

NCZ015>017-031-032-045>047-102-103-090700-
NORTH COAST

CITY           SKY/WX    TMP DP  RH WIND       PRES   REMARKS
EDENTON        PTCLDY    43  41  92 CALM      29.60R
ELIZABETH CITY CLOUDY    42  40  92 CALM      29.57F
KITTY HAWK     PTCLDY    40  37  86 CALM      29.56F FOG
MANTEO         CLOUDY    40  39  97 CALM      29.58F

$$

NCZ045>047-081-094-103-104-090700-
CENTRAL COAST

CITY           SKY/WX    TMP DP  RH WIND       PRES   REMARKS
FRISCO         CLOUDY    46  39  76 NW6       29.60F
SWANQUARTER      N/A     43 N/A N/A W3        29.56F

$$

NCZ095-097-098-100-101-090700-
SOUTHERN COAST

CITY           SKY/WX    TMP DP  RH WIND       PRES   REMARKS
BEAUFORT       CLOUDY    45  38  76 W7        29.60F
CEDAR ISLAND     N/A     45 N/A N/A W3        29.65S
JACKSONVILLE   CLOUDY    43  40  89 W7        29.60F
PINEY ISLAND   CLOUDY   N/A N/A N/A W5        29.59F
WILMINGTON     CLOUDY    46  40  79 W10       29.62F


$$

NCZ011>013-027>030-043-044-078>080-089-090>093-098-090700-
COASTAL PLAIN

CITY           SKY/WX    TMP DP  RH WIND       PRES   REMARKS
AHOSKIE        PTCLDY    37  36  96 CALM      29.60F
CLINTON        PTCLDY    40  40 100 SW3       29.62S
ELIZABETHTOWN  CLOUDY    42  40  95 SW6       29.63S
GOLDSBORO      MOCLDY    39  39 100 SW3       29.60S
GREENVILLE     MIX PCPN  37  37 100 CALM      29.63F
HAVELOCK       CLOUDY    44  38  79 W8        29.60F
KENANSVILLE    PTCLDY    40  40 100 CALM      29.62F
KINSTON        CLOUDY    39  38  99 CALM      29.61F
NEW BERN       CLOUDY    42  38  85 W5        29.61F
RICHLANDS      CLOUDY    41  36  81 SW6       29.61F
ROCKY MOUNT    FOG       39  39 100 W3        29.60F VSB 3/4
WASHINGTON       N/A     40  38  92 CALM      29.59F
WHITEVILLE     CLOUDY    43  41  93 CALM      29.63S

$$

AMZ130-135-150-152-154-156-158-170-250-252-270-ANZ085-086-088-633-658-670-090700-
MARINE OBSERVATIONS

STATION/POSITION TIME  TEMP    WIND        PRES    WAVE   SWELL
                       AIR SEA DIR/SP/G            HT/PER HT/PER
                 (UTC) (F)     (DEG/KT/KT) (MB)    (FT/S) (FT/S)
CHESAPEAKE LIGHT 0600   45      90/  9/ 10 1002.6
64 E VA BEACH    0550   49 52   80/ 14/ 17 1001.8   13/14  13/14
DUCK             0600   45     200/  1/  2 1001.1
2 E DUCK         0611      44                N/A    11/14  10/14
OREGON INLET     0600   44 45   CALM  /  3 1001.2
13E OREGON INLT  0600      47                N/A    13/14  11/14
HATTERAS CG      0600   46 53  310/  8/ 10 1001.6
DIAMOND BUOY     0550   49 73  320/ 14/ 19 1002.4   11/16  10/16
CAPE LOOKOUT     NOT AVBL
BEAUFORT LAB     0600   45 47  290/  6/  9 1001.2
30 SE NEW RVR IN 0608   48 61              1002.4
30 SE NEW RVR IN 0525      61                N/A     7/ 7   3/14
27 SE WRIGHTSVLE 0608   51     360/ 17/ 33 1001.9
5 SE WRIGHTSVLE  0508   49 51  280/ 16/ 19 1003.3
225 S CAPE HAT   0550   60 69  260/ 25/ 33   N/A    14/ 7   8/16
41 SE CHARLESTON 0550   53 65  280/ 21/ 27 1005.4    6/ 8   3/13

$$




USA.gov is the U.S. government's official web portal to all federal, state and local government web resources and services.